Wind_Speed
8 12 12 12 8 10 17 23 28 21 13 17 16 17 13 15 20 19 15 13 16 18 10 16 11 8 8 6 2 4 6 8 9 7 11 11 16 18 20 18 18 18 13 11
12 15 7 6 8 14 20 27 25 23 18 16 20 16 18 21 22 20 22 16 12 21 19 14 13 10 11 6 3 4 6 8 7 6 13 14 16 19 21 19 21 20 16 7
17 11 5 9 11 16 20 26 20 17 12 13 21 23 23 21 19 20 22 21 13 21 22 19 13 10 8 3 4 5 7 6 5 4 9 15 19 21 21 21 24 22 17 14
16 12 13 11 17 18 25 18 20 21 17 13 11 15 27 24 19 22 19 23 17 16 18 22 15 11 11 13 2 4 4 4 3 4 6 9 11 13 16 19 22 23 19 14
12 9 12 16 19 18 20 16 23 19 18 17 20 13 28 30 29 22 18 16 21 15 15 18 11 10 10 20 7 4 3 3 3 5 8 11 14 18 18 19 20 20 22 16
19 13 15 15 15 22 26 26 20 20 18 6 23 11 27 25 28 24 15 11 17 15 17 13 9 12 14 19 18 2 3 3 6 5 8 10 12 15 18 18 19 22 22 19
15 19 17 17 19 14 16 18 7 8 5 9 14 11 25 27 27 14 4 3 6 12 13 11 10 13 16 17 18 8 7 2 6 7 8 9 11 10 13 15 16 22 21 20
19 24 1 3 8 14 18 19 10 7 3 7 19 6 17 23 9 4 7 6 6 9 16 17 13 9 8 14 24 11 10 5 5 10 10 10 11 7 11 13 14 18 20 18
18 27 19 16 18 22 24 28 24 18 9 4 8 15 13 17 8 8 11 10 14 3 9 12 17 17 9 13 15 13 12 8 4 10 12 11 11 11 13 13 15 17 17 17
26 32 35 33 29 17 15 17 8 7 3 4 5 8 17 12 11 10 17 13 14 12 7 12 17 13 12 14 17 15 16 7 4 10 12 11 12 12 13 16 15 18 18 17
8 18 31 22 15 15 14 15 19 16 7 6 2 7 18 18 16 21 14 13 12 16 17 18 19 14 17 18 19 16 14 12 8 9 13 14 14 14 15 15 14 18 16 15
10 9 15 19 18 20 21 10 6 14 9 6 3 16 13 17 21 19 16 12 8 4 12 12 16 17 17 14 15 15 15 12 9 8 10 16 15 15 15 15 15 16 16 15
12 7 10 14 12 13 6 3 8 8 4 10 3 8 6 9 12 15 21 14 9 7 4 9 16 17 16 15 23 21 14 13 12 10 8 14 18 15 14 15 15 15 15 16
15 14 10 8 7 12 16 16 13 7 6 9 14 16 11 14 14 14 20 18 12 9 2 2 9 13 17 16 20 26 23 18 17 13 11 10 13 12 12 13 14 16 17 18
16 18 21 21 17 17 21 23 19 14 13 13 20 17 16 7 12 14 17 19 16 12 11 4 6 13 16 15 21 11 20 20 12 16 16 13 13 14 15 16 17 19 17 17
26 19 20 30 26 23 30 31 31 25 18 22 23 22 18 17 11 15 17 21 19 15 12 8 7 12 15 18 16 13 12 16 17 19 21 17 16 14 13 13 16 18 19 20
27 27 17 30 19 18 27 33 27 18 16 13 13 14 18 18 15 12 16 24 25 16 12 11 8 10 15 19 17 14 17 18 21 20 20 21 21 18 18 19 18 13 14 20
24 23 20 23 15 6 19 11 10 11 12 12 10 12 12 11 12 17 18 24 27 21 17 14 11 12 15 20 19 18 19 16 10 11 19 19 18 19 21 21 22 15 12 13
1 6 12 10 10 21 28 17 16 18 21 23 23 21 19 14 18 14 17 23 30 26 19 15 12 13 14 19 21 21 20 12 16 21 19 21 21 18 18 18 18 17 13 15
12 17 16 17 9 5 7 11 11 13 22 23 24 24 21 18 16 16 18 18 31 26 20 16 16 15 17 18 20 21 20 18 17 22 20 20 22 21 21 22 18 15 15 16
19 15 18 17 16 11 20 20 16 16 14 15 18 20 18 18 17 18 18 22 25 24 20 18 16 14 14 18 21 20 19 16 16 19 21 22 21 22 23 20 17 16 17 18
20 13 17 11 10 11 15 9 17 16 16 18 22 22 18 19 18 15 26 29 27 26 24 27 20 13 12 15 18 18 17 16 21 21 20 19 20 19 19 17 16 18 18 19
9 9 12 11 15 15 19 13 15 16 19 21 24 24 22 20 18 26 19 26 31 31 29 29 22 15 15 14 14 15 20 22 22 18 17 18 18 17 17 17 19 19 19 18
19 21 26 28 30 18 15 16 22 18 21 23 23 21 21 23 20 21 29 29 34 32 31 29 25 21 14 13 14 16 19 19 16 15 15 16 17 17 17 18 18 17 15 14
28 28 26 30 29 27 18 15 15 15 14 15 18 16 25 22 23 24 27 32 37 33 27 25 27 23 15 14 16 20 19 16 15 17 18 17 17 16 15 15 15 14 15 14
20 23 25 29 17 17 20 14 14 14 11 12 16 21 23 23 23 29 31 35 34 35 35 35 32 30 24 15 13 17 16 16 16 16 15 14 13 13 14 13 13 12 13 13
Wind_Direction
203 246 217 184 218 280 302 306 307 327 322 245 295 302 299 278 274 269 269 285 262 247 247 248 234 262 286 346 302 282 301 304 296 245 211 201 191 196 197 195 185 179 168 177
233 243 173 244 268 299 305 308 312 319 333 271 277 293 301 287 285 280 266 272 271 248 239 255 238 243 264 326 313 300 311 312 299 213 186 190 189 193 195 188 181 180 168 146
231 163 217 261 281 295 307 306 310 313 317 322 275 275 293 307 291 290 259 259 252 248 252 249 247 229 248 283 355 303 299 307 280 196 192 189 182 188 191 186 178 177 166 157
245 220 242 258 277 299 304 323 317 303 304 308 313 279 295 312 308 301 277 261 261 231 238 245 240 235 238 250 184 301 294 302 283 191 192 191 193 191 192 184 183 181 181 165
252 267 255 271 277 301 298 312 315 300 291 297 291 279 303 306 309 319 300 270 256 252 235 248 219 215 251 259 227 229 317 284 266 186 194 194 185 185 197 186 186 193 184 171
272 274 273 281 278 293 294 299 302 298 289 274 281 303 295 313 321 316 320 292 248 251 232 237 229 228 244 254 268 196 274 259 226 200 200 205 202 186 185 189 186 189 191 190
286 278 285 281 286 291 288 294 294 306 301 245 287 303 285 310 323 319 285 248 209 217 232 223 216 209 223 241 256 254 254 255 227 213 205 204 206 192 196 199 199 195 198 198
267 293 25 97 276 298 299 285 260 228 214 262 310 271 298 317 326 205 220 246 243 235 229 230 209 154 204 244 256 224 244 248 229 226 204 197 189 197 192 188 184 193 200 210
268 268 289 289 300 301 303 288 291 244 269 294 277 286 303 322 278 231 253 239 243 230 257 234 219 213 202 227 236 230 233 230 232 221 220 203 204 204 195 187 195 200 205 206
256 260 276 285 300 299 284 287 251 220 166 244 243 263 300 342 265 285 261 283 261 222 293 265 226 195 179 204 221 224 229 213 239 228 225 211 203 208 211 214 204 212 214 220
283 253 276 281 269 275 290 289 267 251 233 180 193 263 283 290 299 279 273 268 276 263 278 291 218 198 210 219 228 212 218 215 228 224 222 212 201 207 217 220 220 209 218 223
314 294 273 278 279 277 270 298 326 247 250 234 218 274 305 303 283 279 263 267 294 254 273 283 199 204 205 217 189 187 201 205 219 217 216 207 201 203 216 218 216 217 216 216
310 292 303 287 266 252 225 282 325 330 320 243 218 281 341 318 305 278 258 257 259 317 310 257 210 197 200 195 190 191 177 198 208 214 208 202 203 201 206 213 221 225 226 225
291 281 274 266 252 261 276 282 306 307 291 292 296 306 307 298 307 303 257 245 237 268 280 293 210 200 199 191 202 210 211 205 201 212 208 199 201 198 204 213 230 241 239 240
289 289 278 273 276 286 282 286 286 279 278 282 294 297 311 313 277 299 256 234 226 262 266 309 210 204 205 206 199 187 174 203 213 218 215 213 220 209 215 230 234 235 243 248
302 291 284 282 278 287 281 269 274 292 285 267 273 280 291 284 281 286 257 233 227 252 255 258 245 219 217 207 199 203 207 250 192 216 213 217 213 216 232 235 229 230 236 242
290 288 283 278 287 282 279 275 270 264 258 256 251 273 277 283 279 260 264 223 226 237 237 265 266 222 208 197 194 209 205 216 212 201 208 220 225 224 242 233 228 239 247 253
274 269 267 279 295 232 272 225 206 220 242 258 265 253 258 257 266 246 252 229 221 226 232 239 230 224 198 189 194 197 211 252 207 190 212 216 223 230 244 234 237 245 251 256
193 260 264 261 251 278 277 262 256 268 274 269 271 262 274 287 243 256 250 262 222 230 225 225 231 223 206 191 195 198 202 219 220 222 216 214 222 229 236 241 231 234 254 260
262 289 271 260 255 252 252 258 240 240 265 259 271 276 273 279 278 244 241 234 215 223 228 232 234 219 213 205 198 200 203 223 232 219 218 221 221 224 229 244 259 268 262 263
293 288 280 272 254 251 256 258 251 234 256 269 277 277 264 258 265 247 205 198 198 225 223 234 236 236 231 213 208 203 206 224 226 218 213 215 218 226 234 244 256 255 259 271
292 280 278 274 251 249 248 242 231 243 261 267 273 275 267 247 237 240 212 204 205 216 224 229 225 216 220 215 213 214 215 212 210 210 213 216 225 232 241 244 248 258 265 268
277 235 276 259 252 273 279 266 244 254 262 268 269 265 266 257 238 238 234 213 218 223 220 225 215 218 223 225 223 214 204 204 209 214 221 225 227 231 234 242 250 256 260 266
284 285 277 278 271 261 286 273 261 281 276 273 272 261 257 254 236 241 231 220 210 215 220 216 217 220 219 224 215 202 200 205 208 209 212 217 221 230 238 246 253 256 260 265
292 297 296 284 278 273 262 244 253 245 260 278 272 264 243 244 236 230 230 230 223 219 226 216 224 213 212 218 208 198 195 195 206 215 217 218 221 228 235 241 249 257 265 273
310 310 292 284 282 271 239 227 234 261 281 289 283 256 234 230 241 231 229 231 215 216 219 210 219 215 203 208 215 209 195 199 207 209 212 216 215 220 235 248 260 265 268 270
Height
3171 3171 3170 3172 3173 3173 3172 3170 3168 3164 3163 3162 3160 3159 3159 3158 3156 3155 3154 3155 3155 3157 3161 3163 3164 3166 3168 3170 3169 3168 3169 3168 3167 3167 3168 3169 3173 3176 3180 3184 3188 3192 3195 3196
3170 3166 3169 3171 3171 3171 3170 3168 3162 3161 3160 3159 3158 3156 3155 3153 3151 3151 3152 3152 3153 3154 3156 3159 3162 3163 3166 3169 3168 3168 3168 3168 3167 3165 3166 3168 3172 3175 3178 3183 3187 3191 3194 3195
3166 3165 3167 3167 3167 3168 3166 3165 3161 3160 3159 3157 3155 3153 3150 3149 3147 3146 3147 3149 3150 3152 3154 3157 3160 3162 3164 3167 3167 3167 3168 3168 3167 3167 3167 3168 3170 3173 3177 3180 3186 3190 3194 3195
3165 3163 3164 3165 3164 3167 3165 3162 3160 3158 3158 3155 3154 3149 3144 3145 3144 3142 3142 3144 3147 3148 3151 3153 3157 3161 3161 3163 3166 3167 3168 3168 3168 3168 3168 3170 3172 3174 3177 3182 3187 3190 3193 3195
3160 3161 3162 3162 3161 3163 3160 3160 3158 3156 3155 3153 3152 3151 3142 3141 3140 3139 3138 3140 3143 3146 3147 3150 3154 3159 3159 3160 3163 3166 3167 3167 3169 3168 3169 3170 3172 3175 3176 3181 3186 3190 3193 3195
3156 3158 3157 3157 3158 3158 3158 3157 3156 3154 3152 3151 3149 3150 3138 3139 3138 3136 3136 3136 3139 3142 3144 3148 3151 3155 3157 3158 3158 3162 3166 3167 3168 3168 3170 3170 3172 3174 3176 3179 3184 3188 3193 3196
3153 3151 3153 3155 3154 3156 3155 3154 3152 3153 3152 3147 3147 3146 3140 3137 3136 3133 3135 3134 3134 3137 3140 3143 3147 3151 3152 3155 3159 3161 3165 3166 3167 3168 3169 3170 3172 3175 3176 3179 3182 3187 3190 3194
3150 3146 3148 3150 3152 3153 3152 3152 3151 3154 3152 3145 3144 3142 3138 3136 3134 3133 3133 3134 3135 3137 3138 3140 3146 3148 3151 3152 3154 3160 3163 3165 3166 3168 3169 3171 3172 3174 3176 3177 3180 3184 3189 3193
3149 3144 3146 3148 3149 3151 3148 3145 3144 3143 3144 3145 3143 3140 3139 3135 3134 3135 3132 3133 3133 3134 3135 3138 3141 3145 3148 3151 3154 3157 3160 3163 3164 3166 3168 3170 3172 3174 3176 3178 3180 3182 3186 3189
3143 3142 3140 3141 3145 3144 3143 3143 3141 3140 3144 3146 3140 3138 3137 3135 3134 3134 3132 3131 3132 3133 3134 3136 3138 3141 3144 3148 3153 3156 3157 3160 3162 3164 3166 3168 3171 3174 3175 3177 3179 3182 3184 3186
3141 3140 3135 3139 3139 3139 3140 3139 3137 3136 3137 3138 3142 3136 3134 3133 3133 3132 3131 3131 3132 3132 3131 3131 3135 3139 3141 3145 3150 3153 3154 3157 3159 3162 3164 3166 3168 3171 3174 3176 3178 3180 3182 3185
3140 3138 3134 3133 3136 3135 3135 3133 3133 3133 3134 3133 3134 3132 3132 3131 3129 3128 3129 3130 3131 3131 3129 3130 3132 3136 3139 3142 3146 3149 3152 3155 3158 3160 3162 3165 3167 3169 3172 3175 3177 3178 3180 3182
3137 3135 3132 3129 3133 3131 3130 3130 3132 3132 3130 3129 3130 3128 3129 3128 3128 3126 3126 3128 3129 3129 3128 3127 3129 3133 3137 3139 3143 3147 3149 3153 3156 3158 3160 3162 3165 3167 3170 3173 3174 3176 3177 3179
3135 3133 3131 3130 3128 3128 3126 3127 3129 3130 3129 3128 3126 3124 3124 3125 3124 3123 3122 3125 3126 3127 3126 3125 3126 3130 3133 3137 3139 3142 3147 3150 3152 3155 3157 3160 3163 3166 3168 3170 3172 3173 3174 3175
3131 3128 3127 3126 3126 3124 3123 3122 3124 3125 3125 3124 3122 3119 3121 3120 3120 3119 3118 3122 3122 3123 3125 3124 3124 3127 3130 3132 3135 3138 3141 3145 3149 3153 3155 3158 3161 3163 3165 3168 3169 3170 3170 3172
3123 3121 3121 3117 3119 3119 3115 3115 3115 3117 3118 3117 3116 3115 3116 3115 3115 3117 3116 3117 3119 3119 3122 3123 3123 3125 3127 3130 3132 3134 3137 3136 3143 3149 3153 3156 3158 3160 3163 3166 3167 3167 3168 3168
3117 3116 3115 3107 3112 3111 3107 3106 3110 3110 3110 3110 3110 3110 3109 3110 3110 3111 3112 3111 3114 3116 3118 3119 3120 3121 3123 3125 3129 3133 3134 3136 3139 3144 3149 3153 3155 3157 3160 3163 3163 3164 3165 3165
3108 3110 3111 3104 3106 3107 3098 3100 3103 3103 3103 3104 3104 3104 3104 3105 3105 3105 3108 3108 3111 3113 3114 3117 3118 3119 3120 3122 3127 3130 3131 3130 3133 3139 3146 3150 3153 3155 3155 3156 3157 3160 3162 3162
3105 3106 3106 3103 3102 3096 3094 3098 3099 3098 3097 3097 3097 3098 3099 3099 3100 3102 3102 3103 3106 3110 3113 3117 3117 3117 3118 3121 3123 3126 3129 3132 3136 3139 3143 3146 3149 3152 3153 3154 3154 3154 3157 3158
3102 3101 3102 3100 3098 3093 3089 3091 3092 3090 3089 3090 3091 3092 3093 3095 3094 3097 3096 3097 3103 3108 3112 3112 3113 3114 3115 3117 3119 3122 3125 3129 3133 3136 3139 3143 3145 3149 3150 3151 3150 3153 3154 3155
3096 3095 3094 3093 3091 3086 3085 3087 3089 3089 3090 3088 3087 3087 3088 3089 3092 3094 3091 3094 3099 3105 3107 3109 3111 3113 3113 3114 3116 3119 3123 3126 3131 3133 3136 3138 3141 3144 3146 3147 3149 3150 3151 3151
3092 3093 3089 3088 3085 3082 3080 3082 3085 3083 3081 3082 3082 3082 3082 3084 3088 3089 3087 3090 3094 3096 3100 3103 3107 3108 3110 3111 3113 3116 3120 3124 3127 3129 3132 3135 3137 3139 3142 3144 3145 3146 3147 3147
3087 3086 3085 3084 3077 3076 3075 3076 3075 3074 3075 3076 3076 3077 3077 3078 3082 3085 3086 3087 3090 3092 3095 3099 3105 3107 3107 3108 3111 3113 3117 3119 3123 3126 3129 3132 3135 3137 3139 3141 3142 3143 3143 3142
3080 3080 3077 3076 3071 3071 3071 3071 3070 3070 3070 3069 3069 3071 3070 3073 3075 3079 3081 3082 3083 3086 3089 3095 3099 3104 3106 3107 3108 3110 3113 3116 3120 3123 3125 3129 3132 3134 3136 3138 3139 3138 3139 3138
3075 3073 3068 3063 3063 3063 3064 3064 3063 3063 3063 3062 3061 3062 3063 3066 3070 3071 3073 3075 3079 3080 3086 3090 3095 3101 3105 3106 3106 3107 3109 3113 3117 3120 3122 3126 3128 3130 3133 3133 3134 3135 3135 3135
3067 3065 3061 3055 3057 3055 3057 3056 3057 3056 3058 3056 3054 3054 3055 3059 3062 3065 3066 3070 3074 3074 3080 3083 3087 3089 3096 3103 3103 3105 3108 3111 3114 3117 3120 3123 3125 3127 3128 3130 3131 3133 3133 3133